Regional Weather Roundup
Issued by NWS

Home | Current Version | Previous Version | Text Only | Print | Product List | Glossary Off
Versions: 1 2 3 4 5 6 7 8 9 10 11 12 13 14 15 16 17 18 19 20 21 22 23 24 25 26 27 28 29 30 31 32 33 34 35 36 37 38 39 40 41 42 43 44 45 46 47 48 49 50

000
ASUS43 KLMK 302310
RWRKY
KENTUCKY REGIONAL WEATHER ROUNDUP
NATIONAL WEATHER SERVICE LOUISVILLE KY
600 PM EST FRI JAN 30 2015

NOTE "FAIR" INDICATES FEW OR NO CLOUDS BELOW 12,000 FEET
WITH NO SIGNIFICANT WEATHER AND/OR OBSTRUCTIONS TO VISIBILITY.

KYZ001>023-026-027-061>063-070>075-310000-
WESTERN AND SOUTH CENTRAL KENTUCKY

CITY           SKY/WX    TMP DP  RH WIND       PRES   REMARKS
PADUCAH        CLEAR     41  19  41 NE5       30.45S
HENDERSON      CLEAR     37  21  52 NW6       30.46S WCI  33
OWENSBORO      CLEAR     37  23  57 NW8       30.46S WCI  31
HOPKINSVILLE   CLEAR     39  22  49 N6        30.43F WCI  35
BOWLING GREEN  CLEAR     40  18  41 N5        30.44R
GLASGOW        CLEAR     38  20  49 NE3       30.42S
$$

KYZ024-025-028>034-038-045-046-053-310000-
NORTH CENTRAL KENTUCKY

CITY           SKY/WX    TMP DP  RH WIND       PRES   REMARKS
LOUISVILLE/SDF CLEAR     36  15  42 NE6       30.45R WCI  31
LOUISVILLE/LOU CLEAR     35  14  42 NE6       30.46R WCI  30
FORT KNOX      CLEAR     34  17  50 NW6       30.42R WCI  29
$$

KYZ035>037-039>044-047>052-055>060-089>105-310000-
NORTHEAST KENTUCKY

CITY           SKY/WX    TMP DP  RH WIND       PRES   REMARKS
LEXINGTON      CLEAR     31  15  52 N8        30.42S WCI  23
COVINGTON      PTCLDY    28  15  58 N5        30.44R WCI  23
FRANKFORT      CLEAR     32  13  45 N9        30.43R WCI  24
$$

KYZ054-064>069-076>088-106>120-310000-
SOUTHEAST KENTUCKY

CITY           SKY/WX    TMP DP  RH WIND       PRES   REMARKS
JACKSON        CLEAR     30  14  51 N5        30.38R WCI  25
LONDON         CLEAR     35  13  40 N7        30.38S WCI  29
SOMERSET       CLEAR     34  16  47 N6        30.42R WCI  29
MIDDLESBORO    CLEAR     35  18  51 N6        30.37S WCI  30
MONTICELLO     CLEAR     36  19  50 N7        30.43R WCI  30
$$



USA.gov is the U.S. government's official web portal to all federal, state and local government web resources and services.